Location: *
(52.2743°N, 10.4789°E)
Time: 02:16:18
(UTC+00:00)

Daily predictions for brighter satellites

Satellite Brightness Start Highest point End
(mag) Time Altitude Azimuth Time Altitude Azimuth Time Altitude Azimuth
Cosmos 2297 Rocket 2.3 00:03:34 10° NNW 00:09:16 82° ENE 00:14:56 10° SSE
Cosmos 1862 3.5 00:07:57 25° SSE 00:09:51 55° E 00:13:28 10° NNE
Cosmos 1782 2.8 00:06:32 10° NNW 00:10:10 57° W 00:11:51 28° SSW
Cosmos 1726 Rocket 3.6 00:08:22 10° N 00:12:51 88° E 00:15:53 21° S
CZ-2D R/B 4.5 00:11:57 10° ENE 00:14:11 13° E 00:16:25 10° ESE
Cosmos 2112 Rocket 4.0 00:09:22 10° NNW 00:14:35 69° WSW 00:18:23 19° S
BREEZE-M DEB (TANK) 4.2 00:12:52 10° WSW 00:17:34 75° S 00:37:41 10° E
Cosmos 2058 3.0 00:18:00 25° SSW 00:20:11 61° WNW 00:24:07 10° N
Cosmos 1892 Rocket 3.8 00:18:39 21° S 00:21:22 59° E 00:25:38 10° NNE
Cosmos 44 3.1 00:19:22 18° SW 00:22:35 75° NW 00:27:03 10° NE
Cosmos 1980 Rocket 4.3 00:25:12 10° SE 00:28:13 15° E 00:31:15 10° ENE
Resurs 1-4 Rocket 4.2 00:25:22 10° NE 00:28:59 18° E 00:32:35 10° SE
ATLAS 5 CENTAUR R/B 4.4 00:27:12 10° NW 00:29:46 17° N 00:32:37 10° NE
Cosmos 1680 Rocket 4.0 00:24:57 10° NW 00:29:56 45° WSW 00:33:13 20° S
RESURS DK-1 2.2 00:28:06 10° NW 00:32:05 67° WSW 00:34:57 18° SSE
Spot 2 3.9 00:29:11 17° SSE 00:32:21 85° ENE 00:36:24 10° NNW
H-2A R/B 2.4 00:34:14 24° S 00:36:16 55° WSW 00:40:01 10° NNW
Cosmos 1697 Rocket 3.8 00:32:50 15° SSE 00:36:54 35° ESE 00:41:59 10° NE
Cosmos 1656 3.7 00:33:45 20° SSW 00:37:48 82° ESE 00:43:23 10° NNE
SeaSat 1 2.5 00:32:58 10° SE 00:37:52 83° ENE 00:42:48 10° NNW
Cosmos 2227 Rocket 2.5 00:35:04 10° NNW 00:40:46 70° ENE 00:46:26 10° SE
Cosmos 1356 Rocket 3.3 00:40:45 10° NNW 00:44:43 74° WSW 00:47:29 19° S
BlueWalker 3 1.8 00:42:54 10° WNW 00:46:34 87° N 00:50:14 10° ESE
ATLAS 2AS CENTAUR R/B 3.6 00:39:58 10° NW 00:46:41 53° NNE 00:53:14 10° ESE
Cosmos 1602 3.5 00:46:12 25° SSW 00:47:53 59° WNW 00:51:05 10° N
Cosmos-2242 3.0 00:45:18 10° N 00:49:30 79° E 00:53:05 14° SSE
Cosmos 1937 Rocket 4.2 00:47:15 14° SW 00:51:29 45° WNW 00:56:26 10° NNE
H-2A R/B 3.5 00:50:45 10° NE 00:54:23 29° E 00:58:03 10° SSE
ISS -3.9 00:51:14 10° W 00:54:33 65° SSW 00:57:53 10° ESE
Cosmos 1441 Rocket 2.9 00:58:03 21° SSW 01:00:19 89° ESE 01:03:50 10° NNE
NPP 4.1 00:56:04 10° NNE 01:01:23 56° E 01:06:09 13° S
Landsat 4 4.2 01:03:33 21° SW 01:04:32 26° W 01:07:01 10° NW
Cosmos 1933 4.2 01:01:16 10° NNW 01:04:47 33° W 01:07:01 18° SW
ALOS 4.4 01:02:01 10° NE 01:05:23 20° E 01:08:45 10° SE
Cosmos 2221 3.7 01:05:58 10° N 01:10:02 41° ENE 01:14:04 10° SE
Cosmos 1125 Rocket 4.3 01:06:12 12° S 01:10:43 45° ESE 01:15:45 10° NE
CZ-2C R/B 3.7 01:11:02 15° SSW 01:14:42 31° W 01:19:36 10° NNW
Meteor 2-3 Rocket 3.9 01:10:11 16° SSW 01:14:57 70° WNW 01:20:47 10° N
Cosmos 1048 Rocket 4.4 01:16:38 10° NW 01:21:47 48° WSW 01:26:52 10° S
Cosmos 2058 Rocket 3.8 01:18:03 10° NNW 01:22:10 39° W 01:25:28 15° SSW
Cosmos 1315 Rocket 3.4 01:18:59 10° NNW 01:22:30 36° W 01:25:07 16° SSW
IDEFIX/ARIANE 42P 2.6 01:22:21 10° NNE 01:27:35 82° WNW 01:32:15 13° SSW
BREEZE-M DEB 4.3 01:12:42 10° W 01:28:38 72° S 01:32:42 10° E
Cosmos 1812 Rocket 3.7 01:26:01 10° N 01:30:28 79° E 01:34:51 10° SSE
Cosmos 2082 4.4 01:25:00 10° NNW 01:30:40 60° NE 01:36:16 10° SE
CZ-2C R/B 4.2 01:30:38 10° N 01:34:54 30° WNW 01:39:02 10° WSW
Lacrosse 5 rocket 2.0 01:31:54 10° WNW 01:35:47 55° NNE 01:39:38 10° E
Cosmos 2219 3.3 01:33:31 10° NNW 01:39:16 83° ENE 01:44:56 10° SSE
CZ-4C R/B 3.5 01:39:06 10° W 01:43:43 37° NNW 01:49:35 10° NE
ADEOS II 3.0 01:38:42 10° NNE 01:43:44 45° E 01:48:44 10° S
Cosmos 921 Rocket 3.7 01:40:25 10° NNW 01:44:52 60° ENE 01:49:13 10° SE
Envisat 4.1 01:41:39 10° NNE 01:46:26 39° E 01:51:10 10° SSE
Cosmos 2263 Rocket 2.2 01:40:51 10° NNW 01:46:32 78° WSW 01:52:08 10° SSE
Cosmos 1867 4.4 01:41:41 10° WSW 01:46:56 46° NW 01:52:13 10° NE
SL-16 R/B 3.5 01:41:16 10° SE 01:47:17 53° ENE 01:53:22 10° N
Cosmos 1238 Rocket 3.6 01:45:32 10° N 01:50:51 86° E 01:56:05 10° S
Cosmos 1825 Rocket 4.5 01:46:57 10° SSE 01:51:04 46° E 01:55:14 10° NNE
Gbstr 26 Del rocket 4.3 01:45:51 10° WNW 01:52:01 53° SSW 01:59:14 10° SE
Cosmos 2297 Rocket 3.6 01:48:34 10° NW 01:52:39 21° W 01:56:43 10° SSW
CZ-2D R/B 2.3 01:49:52 10° NNE 01:55:09 73° ESE 02:00:21 10° S
DMSP B5D2-2 4.4 01:57:24 10° SSE 02:02:37 73° ENE 02:07:51 10° NNW
BREEZE-M DEB (TANK) 3.2 02:01:20 10° WSW 02:02:51 15° SSW 02:04:21 10° SSE
Meteor 2-6 Rocket 4.5 02:00:05 10° NNW 02:05:35 54° W 02:11:13 10° S
Resurs 1-4 Rocket 2.2 02:04:05 10° NNE 02:09:25 83° WNW 02:14:44 10° SSW
Cosmos 1758 Rocket 4.1 02:05:34 10° SSW 02:09:46 45° WNW 02:14:01 10° N
Cosmos 1602 Rocket 3.7 02:05:31 10° SSW 02:09:46 62° WNW 02:14:04 10° N
Cosmos 1980 Rocket 2.3 02:05:41 10° SSW 02:11:16 77° ESE 02:16:53 10° NNE
Meteor 1-10 Rocket 4.3 02:05:53 10° NNW 02:11:34 84° W 02:17:19 10° S
Nadezhda 1 Rocket 4.4 02:05:56 10° NNW 02:11:53 46° W 02:17:43 10° SSW
Tiangong 0.2 02:11:14 10° SSW 02:12:26 12° S 02:13:38 10° SSE
ATLAS 5 CENTAUR R/B 3.5 02:09:49 10° NW 02:13:34 35° NNE 02:18:07 10° E
SeaSat 1 3.9 02:12:20 10° SSW 02:15:48 19° WSW 02:19:17 10° WNW
Cosmos 2181 Rocket 4.3 02:09:49 10° N 02:16:03 74° ENE 02:22:10 10° SSE
Cosmos 1842 Rocket 4.4 02:13:08 10° N 02:17:31 54° ENE 02:21:49 10° SSE
H-2A R/B 3.5 02:14:04 10° NNE 02:18:37 33° E 02:23:03 10° SSE
Cosmos 1745 Rocket 4.3 02:13:11 10° SSW 02:19:26 59° WNW 02:25:45 10° N
Cosmos 1697 Rocket 3.2 02:15:10 10° SW 02:20:40 52° NW 02:26:15 10° NNE
FENGYUN 3A 4.1 02:16:40 10° N 02:21:53 51° WNW 02:27:05 10° SW
